Weather History for Jefferson City, MO

Change the Weather History Date:

Saturday, October 27, 2012

  Actual Average Record
Temperature  
Mean Temperature 39 °F -  
Max Temperature 48 °F 65 °F 86 °F (1927)
Min Temperature 30 °F 39 °F 24 °F (1942)
Degree Days  
Heating Degree Days 26    
Moisture  
Dew Point 27 °F    
Average Humidity 63    
Maximum Humidity 85    
Minimum Humidity 43    
Precipitation  
Precipitation 0.00 in - - ()
Sea Level Pressure  
Sea Level Pressure 30.31 in    
Wind  
Wind Speed 4 mph (NNW)    
Max Wind Speed 10 mph    
Max Gust Speed -    
Visibility 10 miles    
Events      
Averages and records for this station are not official NWS values.
T = Trace of Precipitation, MM = Missing Value Source: NWS Daily Summary

Daily Weather History Graph

Daily Weather History Graph

Search for Another Location

Airport:

Trip Planner

Search our weather history database for the weather conditions in past years. The results will help you decide how hot, cold, wet, or windy it might be!

Date:

Astronomy

Oct. 27, 2012 Rise Set
Actual Time 7:30 AM CDT 6:13 PM CDT
Civil Twilight 7:03 AM CDT 6:41 PM CDT
Nautical Twilight 6:32 AM CDT 7:12 PM CDT
Astronomical Twilight 6:01 AM CDT 7:42 PM CDT
Moon 4:59 PM CDT (10/27) 5:26 AM CDT (10/27)
Length of Visible Light 11h 37m
Length of Day
10h 43m
Waxing Gibbous, 96% of the Moon is Illuminated
Oct 27
Waxing Gibbous
Oct 29
Full
Nov 6
Last Quarter
Nov 13
New
Nov 20
First Quarter

Hourly Weather History & Observations

Time (CDT) Temp. Windchill Dew Point Humidity Pressure Visibility Wind Dir Wind Speed Gust Speed Precip Events Conditions
12:53 AM 36.0 °F 33.3 °F 28.0 °F 73% 30.35 in 10.0 mi NW 3.5 mph - N/A   Clear
1:53 AM 34.0 °F - 28.0 °F 79% 30.33 in 10.0 mi Calm Calm - N/A   Clear
2:53 AM 32.0 °F 28.7 °F 27.0 °F 82% 30.32 in 10.0 mi WNW 3.5 mph - N/A   Clear
3:53 AM 34.0 °F 31.0 °F 27.0 °F 75% 30.32 in 10.0 mi WNW 3.5 mph - N/A   Clear
4:53 AM 33.1 °F 30.0 °F 27.0 °F 78% 30.34 in 10.0 mi WNW 3.5 mph - N/A   Clear
5:53 AM 33.1 °F - 26.1 °F 75% 30.34 in 10.0 mi Calm Calm - N/A   Clear
6:53 AM 30.0 °F 26.5 °F 26.1 °F 85% 30.35 in 10.0 mi NW 3.5 mph - N/A   Clear
7:53 AM 30.0 °F 26.5 °F 26.1 °F 85% 30.36 in 10.0 mi NW 3.5 mph - N/A   Clear
8:53 AM 34.0 °F 29.8 °F 27.0 °F 75% 30.37 in 10.0 mi NW 4.6 mph - N/A   Clear
9:53 AM 39.0 °F 33.4 °F 27.0 °F 62% 30.36 in 10.0 mi North 8.1 mph - N/A   Clear
10:53 AM 42.1 °F 36.1 °F 27.0 °F 55% 30.35 in 10.0 mi NNW 10.4 mph - N/A   Clear
11:53 AM 45.0 °F 41.2 °F 27.0 °F 49% 30.34 in 10.0 mi NE 6.9 mph - N/A   Clear
12:53 PM 46.0 °F 43.9 °F 26.1 °F 46% 30.31 in 10.0 mi Variable 4.6 mph - N/A   Clear
1:53 PM 48.0 °F - 27.0 °F 44% 30.28 in 10.0 mi Variable 6.9 mph - N/A   Clear
2:53 PM 48.9 °F - 27.0 °F 43% 30.25 in 10.0 mi NW 9.2 mph - N/A   Clear
3:53 PM 48.0 °F - 27.0 °F 44% 30.25 in 10.0 mi NNW 4.6 mph - N/A   Clear
5:53 PM 46.9 °F - 27.0 °F 46% 30.24 in 10.0 mi North 5.8 mph - N/A   Clear
6:53 PM 44.1 °F 40.1 °F 27.0 °F 51% 30.25 in 10.0 mi North 6.9 mph - N/A   Clear
7:53 PM 42.1 °F 40.2 °F 27.0 °F 55% 30.25 in 10.0 mi North 3.5 mph - N/A   Clear
8:53 PM 39.9 °F 36.7 °F 27.0 °F 60% 30.26 in 10.0 mi North 4.6 mph - N/A   Clear
9:53 PM 37.9 °F 33.5 °F 27.0 °F 65% 30.27 in 10.0 mi North 5.8 mph - N/A   Clear
11:53 PM 39.9 °F 35.8 °F 27.0 °F 60% 30.27 in 10.0 mi North 5.8 mph - N/A   Clear